Location: Bergnershof
(48.9468°N, 10.9431°E)
Time: 11:45:57
(UTC+00:00)

USA 305 - Pass Details

Date: 03 March 2021
Orbit: 567 x 574 km, 54.0° (Epoch: 13 April)

Event Time Altitude Azimuth Distance (km) Brightness Sun altitude
Rises 19:45:43 0° 292° (WNW) 2,781 7.7 -27.0°
Reaches altitude 10° 19:48:02 10° 298° (WNW) 1,880 6.5 -27.4°
Enters shadow 19:51:05 39° 327° (NNW) 860 4.1 -27.8°
